Location: City of Moscow
(46.7306°N, 116.9989°W)
Time: 15:01:00
(UTC+00:00)

CUBEBUG 2 - Pass Details

Date: 21 April 2026
Orbit: 546 x 628 km, 97.9° (Epoch: 15 May)

Event Time Altitude Azimuth Distance (km) Brightness Sun altitude
Rises 09:43:42 0° 20° (NNE) 2,853 ? -25.8°
Reaches altitude 10° 09:46:02 10° 28° (NNE) 1,931 ? -25.5°
Maximum altitude 09:49:57 38° 97° (E) 899 ? -25.2°
Enters shadow 09:50:13 37° 107° (ESE) 906 ? -25.2°
